[Date Prev][Date Next][Thread Prev][Thread Next] - [Date Index][Thread Index][Author Index]

2 Line ISS Keps 11-21



ISS
1 25544U 98067A   04326.34155093  .00021586  00000-0  17754-3 0  1918
2 25544  51.6386 243.7426 0004410  32.1364 101.8640 15.70343345343002
----
Via the sarex mailing list at AMSAT.ORG courtesy of AMSAT-NA.
To unsubscribe, send "unsubscribe sarex" to Majordomo@amsat.org



AMSAT Top AMSAT Home